Montrose, CO

4:38 PM MST on December 18, 2017 (GMT -0700)
Montrose Regional

Weather History for KMTJ - June, 2012

Change the Weather History Date:

Tuesday, June 5, 2012

  Actual Average Record
Temperature  
Mean Temperature 72 °F 65 °F  
Max Temperature 89 °F 81 °F 93 °F (2006)
Min Temperature 54 °F 49 °F 37 °F (1999)
Degree Days  
Heating Degree Days 0 3  
Month to date heating degree days 0 15  
Since 1 June heating degree days 0 15  
Since 1 July heating degree days 5659 6179  
Cooling Degree Days 7 3  
Month to date cooling degree days 32 11  
Year to date cooling degree days 55 28  
Since 1 June cooling degree days 32 11  
Growing Degree Days 22 (Base 50)    
Moisture  
Dew Point 27 °F    
Average Humidity 27    
Maximum Humidity 47    
Minimum Humidity 6    
Precipitation  
Precipitation 0.00 in 0.03 in 0.23 in (2008)
Month to date precipitation 0.00 0.12  
Year to date precipitation 1.56 4.42  
Sea Level Pressure  
Sea Level Pressure 29.68 in    
Wind  
Wind Speed 12 mph (South)    
Max Wind Speed 25 mph    
Max Gust Speed 36 mph    
Visibility 10 miles    
Events      
T = Trace of Precipitation, MM = Missing Value Source: NWS Daily Summary

Daily Weather History Graph

Daily Weather History Graph

Search for Another Location

Airport or City:

Trip Planner

Search our weather history database for the weather conditions in past years. The results will help you decide how hot, cold, wet, or windy it might be!

Date:

Astronomy

Jun. 05, 2012 Rise Set
Actual Time 5:47 AM MDT 8:32 PM MDT
Civil Twilight 5:16 AM MDT 9:04 PM MDT
Nautical Twilight 4:37 AM MDT 9:43 PM MDT
Astronomical Twilight 3:52 AM MDT 10:28 PM MDT
Moon 10:00 PM MDT (6/5) 7:02 AM MDT (6/5)
Length of Visible Light 15h 47m
Length of Day
14h 45m
Full, 98% of the Moon is Illuminated
Jun 5
Full
Jun 11
Last Quarter
Jun 19
New
Jun 26
First Quarter
Jul 3
Full

Hourly Weather History & Observations

Time (MDT) Temp. Dew Point Humidity Pressure Visibility Wind Dir Wind Speed Gust Speed Precip Events Conditions
12:53 AM 70.0 °F 39.0 °F 32% 29.72 in 10.0 mi SE 17.3 mph 28.8 mph N/A   Clear
1:53 AM 66.9 °F 39.0 °F 36% 29.69 in 10.0 mi SSE 12.7 mph 16.1 mph N/A   Clear
2:53 AM 64.9 °F 39.9 °F 40% 29.72 in 10.0 mi East 11.5 mph - N/A   Clear
3:53 AM 57.0 °F 36.0 °F 45% 29.75 in 10.0 mi SSW 6.9 mph - N/A   Clear
4:53 AM 55.0 °F 34.0 °F 45% 29.76 in 10.0 mi SSE 8.1 mph - N/A   Clear
5:53 AM 55.9 °F 35.1 °F 45% 29.76 in 10.0 mi South 4.6 mph - N/A   Clear
6:53 AM 62.1 °F 39.9 °F 44% 29.75 in 10.0 mi SE 9.2 mph 20.7 mph N/A   Clear
7:53 AM 62.1 °F 37.9 °F 41% 29.75 in 10.0 mi SSE 6.9 mph - N/A   Clear
8:53 AM 73.0 °F 39.9 °F 30% 29.70 in 10.0 mi ESE 12.7 mph 20.7 mph N/A   Clear
9:53 AM 78.1 °F 37.9 °F 24% 29.68 in 10.0 mi ESE 9.2 mph - N/A   Clear
10:53 AM 81.0 °F 34.0 °F 18% 29.68 in 10.0 mi North 9.2 mph - N/A   Clear
11:53 AM 82.9 °F 34.0 °F 17% 29.64 in 10.0 mi NW 11.5 mph 18.4 mph N/A   Clear
12:53 PM 86.0 °F 17.1 °F 8% 29.60 in 10.0 mi SW 13.8 mph 27.6 mph N/A   Clear
1:00 PM 87.8 °F 17.6 °F 8% 29.88 in 10.0 mi WSW 17.3 mph 26.5 mph N/A   Clear
1:53 PM 89.1 °F 18.0 °F 7% 29.58 in 10.0 mi WSW 20.7 mph 33.4 mph N/A   Clear
2:53 PM 88.0 °F 18.0 °F 8% 29.58 in 10.0 mi South 16.1 mph 20.7 mph N/A   Clear
3:01 PM 87.8 °F 19.4 °F 8% 29.86 in 10.0 mi SW 17.3 mph 24.2 mph N/A   Clear
3:53 PM 89.1 °F 18.0 °F 7% 29.59 in 10.0 mi SW 16.1 mph 28.8 mph N/A   Clear
4:37 PM 89.6 °F 15.8 °F 7% 29.83 in 10.0 mi SSW 20.7 mph 33.4 mph N/A   Clear
4:53 PM 88.0 °F 16.0 °F 7% 29.57 in 10.0 mi SSW 18.4 mph 29.9 mph N/A   Clear
6:53 PM 86.0 °F 14.0 °F 7% 29.55 in 10.0 mi South 21.9 mph 27.6 mph N/A   Clear
7:53 PM 82.9 °F 14.0 °F 8% 29.56 in 10.0 mi South 11.5 mph 20.7 mph N/A   Clear
8:53 PM 75.9 °F 18.0 °F 11% 29.57 in 10.0 mi ESE 4.6 mph - N/A   Clear
9:53 PM 75.9 °F 18.0 °F 11% 29.59 in 10.0 mi SSE 9.2 mph - N/A   Clear
10:53 PM 73.0 °F 19.0 °F 13% 29.61 in 10.0 mi South 6.9 mph - N/A   Clear
11:53 PM 66.0 °F 21.0 °F 18% 29.64 in 10.0 mi ESE 11.5 mph - N/A   Clear